TimeCDT,TemperatureF,Dew PointF,Humidity,Sea Level PressureIn,VisibilityMPH,Wind Direction,Wind SpeedMPH,Gust SpeedMPH,PrecipitationIn,Events,Conditions,WindDirDegrees,DateUTC
12:53 AM,57.0,52.0,83,29.94,10.0,SSW,5.8,-,N/A,,Mostly Cloudy,210,2012-10-03 05:53:00
1:53 AM,55.9,52.0,87,29.95,8.0,South,5.8,-,N/A,,Mostly Cloudy,180,2012-10-03 06:53:00
2:53 AM,55.0,51.1,86,29.96,8.0,Calm,Calm,-,N/A,,Clear,0,2012-10-03 07:53:00
3:53 AM,54.0,50.0,86,29.97,9.0,South,5.8,-,N/A,,Clear,170,2012-10-03 08:53:00
4:53 AM,54.0,50.0,86,29.98,10.0,South,5.8,-,N/A,,Clear,170,2012-10-03 09:53:00
5:53 AM,54.0,48.9,83,30.00,10.0,SSW,4.6,-,N/A,,Clear,200,2012-10-03 10:53:00
6:53 AM,54.0,48.9,83,30.01,10.0,South,3.5,-,N/A,,Clear,190,2012-10-03 11:53:00
7:53 AM,55.9,50.0,80,30.02,10.0,Calm,Calm,-,N/A,,Clear,0,2012-10-03 12:53:00
8:53 AM,61.0,51.1,70,30.03,10.0,SSW,5.8,-,N/A,,Clear,210,2012-10-03 13:53:00
9:53 AM,64.9,53.1,65,30.05,10.0,SW,5.8,-,N/A,,Clear,220,2012-10-03 14:53:00
10:53 AM,69.1,52.0,54,30.05,10.0,SW,8.1,-,N/A,,Clear,230,2012-10-03 15:53:00
11:53 AM,72.0,51.1,48,30.04,10.0,SW,9.2,-,N/A,,Clear,220,2012-10-03 16:53:00
12:53 PM,75.0,53.1,46,30.03,10.0,SSW,10.4,-,N/A,,Mostly Cloudy,200,2012-10-03 17:53:00
1:53 PM,75.0,52.0,44,30.01,10.0,SSW,9.2,-,N/A,,Mostly Cloudy,210,2012-10-03 18:53:00
2:53 PM,75.2,53.6,47,30.01,10.0,SSW,5.8,-,N/A,,Partly Cloudy,200,2012-10-03 19:53:00
3:53 PM,73.9,54.0,50,30.00,10.0,South,9.2,-,N/A,,Scattered Clouds,190,2012-10-03 20:53:00
4:53 PM,75.0,54.0,48,30.01,10.0,South,4.6,-,N/A,,Mostly Cloudy,190,2012-10-03 21:53:00
5:53 PM,72.0,54.0,53,30.02,10.0,South,4.6,-,N/A,,Partly Cloudy,180,2012-10-03 22:53:00
6:53 PM,68.0,55.0,63,30.03,10.0,SSE,5.8,-,N/A,,Scattered Clouds,160,2012-10-03 23:53:00
7:53 PM,64.0,55.0,73,30.04,10.0,SSE,5.8,-,N/A,,Clear,150,2012-10-04 00:53:00
8:53 PM,66.9,55.0,66,30.06,10.0,South,6.9,-,N/A,,Partly Cloudy,180,2012-10-04 01:53:00
9:53 PM,64.0,55.0,73,30.08,10.0,South,6.9,-,N/A,,Clear,170,2012-10-04 02:53:00
10:53 PM,66.0,54.0,65,30.10,10.0,South,4.6,-,N/A,,Scattered Clouds,180,2012-10-04 03:53:00
11:53 PM,64.9,54.0,68,30.11,10.0,South,3.5,-,N/A,,Clear,180,2012-10-04 04:53:00